Regional Weather Roundup
Issued by NWS Kansas City/Pleasant Hill, MO

Home | Current Version | Previous Version | Graphics & Text | Print | Product List | Glossary Off
Versions: 1 2 3 4 5 6 7 8 9 10 11 12 13 14 15 16 17 18 19 20 21 22 23 24 25 26 27 28 29 30 31 32 33 34 35 36 37 38 39 40 41 42 43 44 45 46 47 48 49 50

000
ASUS43 KEAX 190410
RWREAX

WEATHER ROUNDUP FOR EASTERN KANSAS AND NORTHWEST MISSOURI
NATIONAL WEATHER SERVICE KANSAS CITY/PLEASANT HILL MO
1100 PM CDT SAT APR 18 2015

KSZ040-057-103>105-MOZ028-029-037-043-190500-
...KANSAS CITY METROPOLITAN AREA...

CITY           SKY/WX    TMP DP  RH WIND       PRES   REMARKS
K.C. INTL      MOCLDY    58  56  93 E6        29.82F
K.C. DOWNTOWN  MOCLDY    60  57  89 NE3       29.81F
LEES SUMMIT    CLOUDY    59  57  93 E5        29.82F
OLATHE - IXD   MOCLDY    58  57  97 E3        29.82F
OLATHE - OJC   MOCLDY    59  57  93 E3        29.81F
LAWRENCE       MOCLDY    56  55  97 CALM      29.82F

$$

MOZ001>008-011>017-020>025-030>033-038>040-044>046-053-054-190500-
...NORTHERN AND CENTRAL MISSOURI...

CITY           SKY/WX    TMP DP  RH WIND       PRES   REMARKS
ST. JOSEPH     PTCLDY    58  56  93 SE3       29.82F
MOSBY          CLOUDY    57  57 100 CALM      29.82F
WARRENSBURG    RAIN      57  55  94 NE3       29.83S
WHITEMAN AFB   LGT RAIN  61  59  94 E3        29.82F
CLINTON        MOCLDY    61  61 100 E3        29.83S
SEDALIA        PTCLDY    60  58  92 CALM      29.84F FOG
WARSAW         NOT AVBL
MARSHALL       CLEAR     61  61 100 CALM      29.83F
CHILLICOTHE      N/A     58  57  97 CALM      29.85F
MOBERLY        CLOUDY    63  54  72 E7        29.85F
KIRKSVILLE     CLOUDY    60  59  96 SE8       29.87R

$$

MOZ041-047>049-056>058-063>065-088>090-097-190500-
...EASTERN AND SOUTHERN MISSOURI...

CITY           SKY/WX    TMP DP  RH WIND       PRES   REMARKS
ST. LOUIS INTL MOCLDY    67  57  70 E5        29.85F
SPIRIT OF STL  MOCLDY    65  57  75 E3        29.83F
COLUMBIA       PTCLDY    61  54  77 E5        29.83F
JEFFERSON CITY MOCLDY    62  56  80 CALM      29.83F
MEXICO         CLOUDY   N/A N/A N/A E6        29.85F
HANNIBAL       RAIN      63  57  82 W10       29.87S
ROLLA          PTCLDY    59  56  89 E5        29.83F
LEBANON        CLEAR     59  57  94 E3        29.84F
OSAGE BEACH    PTCLDY    55  54  94 CALM      29.83F VSB 1
SPRINGFIELD    CLEAR     56  54  93 CALM      29.82F
BRANSON        CLEAR     59  57  94 CALM      29.83F
NEVADA         PTCLDY    57  55  94 E3        29.81F
JOPLIN         PTCLDY    61  57  87 E7        29.80F
WEST PLAINS    PTCLDY    63  56  78 CALM      29.84F

$$

IAZ060-094-KSZ022-034>040-054-083-096-NEZ052-066-093-190500-
...KANSAS...SOUTHEAST NEBRASKA AND IOWA...

CITY           SKY/WX    TMP DP  RH WIND       PRES   REMARKS
TOPEKA         CLOUDY    58  52  80 W12       29.83S
MANHATTAN      LGT RAIN  55  54  96 SW6       29.83F
EMPORIA        LGT RAIN  54  51  90 NW13      29.84F
CHANUTE        MOCLDY    60  58  92 E6        29.79F
WICHITA        TSTM      57  51  80 S9        29.83R
OMAHA          MOCLDY    56  55  97 S3        29.82R
LINCOLN        CLOUDY    61  55  81 SW8       29.82F
FALLS CITY     CLOUDY    56  55  97 S6        29.81S FOG
LAMONI         MOCLDY    59  58  96 S5        29.82F FOG
DES MOINES     CLOUDY    61  58  90 SE8       29.82S

$$



USA.gov is the U.S. government's official web portal to all federal, state and local government web resources and services.